TimeAEST,TemperatureF,Dew PointF,Humidity,Sea Level PressureIn,VisibilityMPH,Wind Direction,Wind SpeedMPH,Gust SpeedMPH,PrecipitationIn,Events,Conditions,WindDirDegrees,DateUTC
12:00 AM,47,42,76,30.17,19,North,9.2,,,,Partly Cloudy,0,2013-07-06 14:00:00
12:00 AM,46.4,42.8,87,30.15,6.2,North,9.2,-,N/A,,Mostly Cloudy,360,2013-07-06 14:00:00
12:30 AM,46.4,41.0,81,30.15,6.2,North,10.4,-,N/A,,Mostly Cloudy,360,2013-07-06 14:30:00
1:00 AM,45,40,78,30.17,,North,10.4,,,,,350,2013-07-06 15:00:00
1:00 AM,44.6,41.0,87,30.15,6.2,North,10.4,-,N/A,,Scattered Clouds,350,2013-07-06 15:00:00
1:30 AM,44.6,39.2,81,30.15,6.2,North,10.4,-,N/A,,Scattered Clouds,350,2013-07-06 15:30:00
2:00 AM,44.6,39.2,81,30.15,6.2,North,11.5,-,N/A,,Scattered Clouds,350,2013-07-06 16:00:00
2:30 AM,44.6,39.2,81,30.15,6.2,North,10.4,-,N/A,,Mostly Cloudy,360,2013-07-06 16:30:00
3:00 AM,43,39,81,30.19,19,North,10.4,,,,Partly Cloudy,0,2013-07-06 17:00:00
3:00 AM,42.8,39.2,87,30.15,6.2,North,10.4,-,N/A,,Scattered Clouds,360,2013-07-06 17:00:00
3:30 AM,41.0,39.2,93,30.15,6.2,North,11.5,-,N/A,,Partly Cloudy,360,2013-07-06 17:30:00
4:00 AM,42,38,83,30.19,,North,15.0,,,,,0,2013-07-06 18:00:00
4:00 AM,42.8,39.2,87,30.15,6.2,North,15.0,-,N/A,,Partly Cloudy,360,2013-07-06 18:00:00
4:30 AM,42.8,37.4,81,30.18,6.2,North,12.7,-,N/A,,Partly Cloudy,350,2013-07-06 18:30:00
5:00 AM,41.0,37.4,87,30.18,6.2,North,12.7,-,N/A,,Partly Cloudy,360,2013-07-06 19:00:00
5:30 AM,42.8,37.4,81,30.18,6.2,North,13.8,-,N/A,,Partly Cloudy,360,2013-07-06 19:30:00
6:00 AM,41,38,85,30.22,19,North,16.1,,,,Partly Cloudy,0,2013-07-06 20:00:00
6:00 AM,41.0,37.4,87,30.21,6.2,North,16.1,-,N/A,,Partly Cloudy,360,2013-07-06 20:00:00
6:30 AM,39.2,37.4,93,30.21,6.2,North,16.1,-,N/A,,Partly Cloudy,360,2013-07-06 20:30:00
7:00 AM,40,37,87,30.25,,North,16.1,,,,,0,2013-07-06 21:00:00
7:00 AM,41.0,37.4,87,30.24,6.2,North,16.1,-,N/A,,Partly Cloudy,360,2013-07-06 21:00:00
7:30 AM,41.0,37.4,87,30.24,6.2,North,16.1,-,N/A,,Scattered Clouds,360,2013-07-06 21:30:00
8:00 AM,41.0,39.2,93,30.24,6.2,North,16.1,-,N/A,,Scattered Clouds,360,2013-07-06 22:00:00
8:30 AM,42.8,37.4,81,30.24,6.2,North,16.1,-,N/A,,Partly Cloudy,360,2013-07-06 22:30:00
9:00 AM,44,39,76,30.28,25,North,18.4,,,,Partly Cloudy,0,2013-07-06 23:00:00
9:00 AM,42.8,39.2,87,30.27,6.2,North,18.4,-,N/A,,Partly Cloudy,350,2013-07-06 23:00:00
9:30 AM,44.6,39.2,81,30.27,6.2,North,18.4,-,N/A,,Partly Cloudy,360,2013-07-06 23:30:00
11:00 AM,48.2,41.0,76,30.27,6.2,North,16.1,-,N/A,,Mostly Cloudy,360,2013-07-07 01:00:00
11:30 AM,50.0,42.8,76,30.27,6.2,North,13.8,-,N/A,,Mostly Cloudy,360,2013-07-07 01:30:00
12:00 PM,49,43,71,30.29,25,North,16.1,,,,Scattered Clouds,0,2013-07-07 02:00:00
12:00 PM,48.2,42.8,82,30.27,6.2,North,16.1,-,N/A,,Mostly Cloudy,360,2013-07-07 02:00:00
12:30 PM,48.2,42.8,82,30.27,6.2,North,17.3,-,N/A,Rain,Light Rain Showers,350,2013-07-07 02:30:00
1:00 PM,52,44,66,30.27,,North,17.3,,,,,0,2013-07-07 03:00:00
1:00 PM,51.8,44.6,76,30.24,6.2,North,17.3,-,N/A,,Mostly Cloudy,360,2013-07-07 03:00:00
1:30 PM,53.6,42.8,67,30.24,6.2,NW,15.0,-,N/A,,Mostly Cloudy,320,2013-07-07 03:30:00
2:00 PM,51.8,44.6,76,30.24,6.2,North,18.4,-,N/A,,Mostly Cloudy,360,2013-07-07 04:00:00
2:30 PM,51.8,44.6,76,30.24,6.2,North,17.3,-,N/A,,Mostly Cloudy,360,2013-07-07 04:30:00
3:00 PM,51,44,68,30.26,19,North,17.3,,,,Partly Cloudy,0,2013-07-07 05:00:00
3:00 PM,51.8,42.8,71,30.24,6.2,North,17.3,-,N/A,,Mostly Cloudy,360,2013-07-07 05:00:00
3:30 PM,50.0,44.6,82,30.24,6.2,North,17.3,-,N/A,,Mostly Cloudy,360,2013-07-07 05:30:00
4:00 PM,49,44,75,30.27,,North,16.1,,,,,350,2013-07-07 06:00:00
4:00 PM,50.0,42.8,76,30.24,6.2,North,16.1,-,N/A,,Mostly Cloudy,350,2013-07-07 06:00:00
4:30 PM,50.0,44.6,82,30.24,6.2,North,11.5,-,N/A,Rain,Light Rain Showers,360,2013-07-07 06:30:00
5:00 PM,50.0,44.6,82,30.27,6.2,North,15.0,-,N/A,,Mostly Cloudy,360,2013-07-07 07:00:00
5:30 PM,50.0,44.6,82,30.27,6.2,North,13.8,-,N/A,,Mostly Cloudy,360,2013-07-07 07:30:00
6:00 PM,49,44,76,30.30,19,North,13.8,,,,Mostly Cloudy,0,2013-07-07 08:00:00
6:00 PM,50.0,44.6,82,30.27,6.2,North,13.8,-,N/A,,Mostly Cloudy,350,2013-07-07 08:00:00
6:30 PM,50.0,44.6,82,30.27,6.2,North,11.5,-,N/A,Rain,Light Rain Showers,360,2013-07-07 08:30:00
7:00 PM,49,41,67,30.33,,SSW,6.9,,,,,200,2013-07-07 09:00:00
7:00 PM,48.2,41.0,76,30.30,6.2,SSW,6.9,-,N/A,Rain,Light Rain Showers,200,2013-07-07 09:00:00
7:30 PM,48.2,41.0,76,30.33,6.2,WSW,5.8,-,N/A,,Mostly Cloudy,250,2013-07-07 09:30:00
8:00 PM,48.2,41.0,76,30.33,6.2,West,6.9,-,N/A,,Mostly Cloudy,260,2013-07-07 10:00:00
8:30 PM,48.2,42.8,82,30.33,6.2,WSW,8.1,-,N/A,,Mostly Cloudy,250,2013-07-07 10:30:00
9:00 PM,46,42,80,30.36,19,WNW,5.8,,,,Partly Cloudy,300,2013-07-07 11:00:00
9:00 PM,46.4,42.8,87,30.33,6.2,WNW,5.8,-,N/A,,Scattered Clouds,300,2013-07-07 11:00:00
9:30 PM,44.6,42.8,93,30.33,6.2,North,5.8,-,N/A,,Partly Cloudy,360,2013-07-07 11:30:00
10:00 PM,42,41,97,30.37,,NNE,6.9,,,,,30,2013-07-07 12:00:00
10:00 PM,42.8,41.0,93,30.36,-9999.0,NNE,6.9,-,N/A,,Clear,30,2013-07-07 12:00:00
10:30 PM,44.6,41.0,87,30.36,6.2,North,9.2,-,N/A,,Partly Cloudy,10,2013-07-07 12:30:00
11:00 PM,44.6,41.0,87,30.36,6.2,North,10.4,-,N/A,,Partly Cloudy,350,2013-07-07 13:00:00
11:30 PM,44.6,42.8,93,30.36,6.2,North,10.4,-,N/A,,Partly Cloudy,350,2013-07-07 13:30:00